Location: Knowlton
(51.2333°N, 1.2667°E)
Time: 22:53:47
(UTC+00:00)

ZACube-1 - Pass Details

Date: 29 November 2021
Orbit: 582 x 665 km, 97.6° (Epoch: 21 January)

Event Time Altitude Azimuth Distance (km) Brightness Sun altitude
Rises 06:11:24 0° 360° (N) 2,974 ? -12.4°
Reaches altitude 10° 06:14:34 10° 335° (NNW) 2,073 ? -11.9°
Enters shadow 06:16:04 13° 316° (NW) 1,851 ? -11.7°
